| time (UTC) | temp F | wind direction | speed MPH | gust MPH | rain 1hr in | rain 24hr in | rain mn in | humidity % | barometer mb |
| 20260504192904 | 72 | 207 | 5.0 | 9.0 | 0.00 | 0.00 | 0.00 | 38 | 1010.1 |
| 20260504192404 | 72 | 193 | 3.0 | 12.0 | 0.00 | 0.00 | 0.00 | 38 | 1010.1 |
| 20260504191904 | 71 | 277 | 3.0 | 6.0 | 0.00 | 0.00 | 0.00 | 38 | 1010.3 |
| 20260504191404 | 71 | 254 | 5.0 | 8.0 | 0.00 | 0.00 | 0.00 | 39 | 1010.4 |
| 20260504190904 | 71 | 172 | 4.0 | 10.0 | 0.00 | 0.00 | 0.00 | 38 | 1010.3 |
| 20260504190404 | 72 | 173 | 5.0 | 9.0 | 0.00 | 0.00 | 0.00 | 40 | 1010.5 |
| 20260504185904 | 71 | 199 | 2.0 | 8.0 | 0.00 | 0.00 | 0.00 | 39 | 1010.5 |
| 20260504184904 | 71 | 299 | 3.0 | 8.0 | 0.00 | 0.00 | 0.00 | 38 | 1010.6 |
| 20260504184405 | 71 | 239 | 3.0 | 9.0 | 0.00 | 0.00 | 0.00 | 39 | 1010.6 |
| 20260504183404 | 70 | 243 | 3.0 | 7.0 | 0.00 | 0.00 | 0.00 | 40 | 1010.8 |
| 20260504182904 | 70 | 207 | 5.0 | 9.0 | 0.00 | 0.00 | 0.00 | 39 | 1010.9 |
| 20260504182404 | 70 | 194 | 4.0 | 10.0 | 0.00 | 0.00 | 0.00 | 39 | 1010.9 |
| 20260504181905 | 69 | 291 | 5.0 | 12.0 | 0.00 | 0.00 | 0.00 | 40 | 1011.1 |
| 20260504181405 | 70 | 187 | 3.0 | 9.0 | 0.00 | 0.00 | 0.00 | 40 | 1011.1 |
| 20260504180405 | 70 | 214 | 3.0 | 8.0 | 0.00 | 0.00 | 0.00 | 39 | 1011.2 |
| 20260504175906 | 70 | 242 | 3.0 | 7.0 | 0.00 | 0.00 | 0.00 | 39 | 1011.3 |
| 20260504175406 | 70 | 265 | 5.0 | 12.0 | 0.00 | 0.00 | 0.00 | 40 | 1011.4 |
| 20260504174405 | 69 | 211 | 5.0 | 12.0 | 0.00 | 0.00 | 0.00 | 40 | 1011.5 |
| 20260504173904 | 69 | 210 | 5.0 | 12.0 | 0.00 | 0.00 | 0.00 | 40 | 1011.6 |
| 20260504173405 | 69 | 201 | 5.0 | 9.0 | 0.00 | 0.00 | 0.00 | 40 | 1011.6 |
| 20260504172904 | 70 | 194 | 4.0 | 8.0 | 0.00 | 0.00 | 0.00 | 41 | 1011.6 |
| 20260504171904 | 69 | 207 | 3.0 | 8.0 | 0.00 | 0.00 | 0.00 | 41 | 1011.7 |
| 20260504171406 | 68 | 204 | 3.0 | 8.0 | 0.00 | 0.00 | 0.00 | 43 | 1011.8 |
| 20260504170906 | 69 | 241 | 5.0 | 8.0 | 0.00 | 0.00 | 0.00 | 41 | 1011.9 |
| 20260504170405 | 68 | 230 | 3.0 | 12.0 | 0.00 | 0.00 | 0.00 | 42 | 1011.9 |
| 20260504160404 | 66 | 201 | 4.0 | 9.0 | 0.00 | 0.00 | 0.00 | 41 | 1012.7 |
| 20260504150903 | 64 | 211 | 4.0 | 8.0 | 0.00 | 0.00 | 0.00 | 45 | 1013.3 |
| 20260504150405 | 64 | 228 | 3.0 | 10.0 | 0.00 | 0.00 | 0.00 | 47 | 1013.3 |
| 20260504140904 | 61 | 191 | 4.0 | 9.0 | 0.00 | 0.00 | 0.00 | 55 | 1013.5 |
| 20260504100403 | 38 | 225 | 1.0 | 5.0 | 0.00 | 0.00 | 0.00 | 90 | 1014.4 |
| 20260504081406 | 38 | 244 | 0.0 | 1.0 | 0.00 | 0.00 | 0.00 | 85 | 1014.4 |
| 20260504080906 | 38 | 131 | 0.0 | 0.0 | 0.00 | 0.00 | 0.00 | 84 | 1014.4 |
| 20260504080406 | 38 | 211 | 0.0 | 0.0 | 0.00 | 0.00 | 0.00 | 84 | 1014.4 |
| 20260504070406 | 40 | 179 | 0.0 | 0.0 | 0.00 | 0.00 | 0.00 | 80 | 1014.3 |
| 20260504050406 | 42 | 185 | 0.0 | 1.0 | 0.00 | 0.00 | 0.00 | 76 | 1014.2 |
| 20260504045906 | 42 | 129 | 0.0 | 0.0 | 0.00 | 0.00 | 0.00 | 76 | 1014.2 |
| 20260504045406 | 42 | 217 | 0.0 | 1.0 | 0.00 | 0.00 | 0.00 | 75 | 1014.2 |
| 20260504043906 | 42 | 139 | 0.0 | 1.0 | 0.00 | 0.00 | 0.00 | 76 | 1014.1 |
| 20260504043406 | 42 | 195 | 0.0 | 1.0 | 0.00 | 0.00 | 0.00 | 75 | 1014.1 |
| 20260504042407 | 43 | 240 | 0.0 | 1.0 | 0.00 | 0.00 | 0.00 | 74 | 1013.9 |
| 20260504041907 | 43 | 89 | 0.0 | 1.0 | 0.00 | 0.00 | 0.00 | 73 | 1013.8 |
| 20260504041407 | 43 | 217 | 0.0 | 1.0 | 0.00 | 0.00 | 0.00 | 72 | 1013.8 |
| 20260504040906 | 43 | 213 | 0.0 | 1.0 | 0.00 | 0.00 | 0.00 | 72 | 1013.8 |
| 20260504040406 | 44 | 222 | 0.0 | 1.0 | 0.00 | 0.00 | 0.00 | 71 | 1013.7 |
| 20260504035906 | 44 | 210 | 0.0 | 0.0 | 0.00 | 0.00 | 0.00 | 72 | 1013.7 |
| 20260504034407 | 44 | 136 | 0.0 | 0.0 | 0.00 | 0.00 | 0.00 | 70 | 1013.6 |
| 20260504033406 | 44 | 216 | 0.0 | 1.0 | 0.00 | 0.00 | 0.00 | 70 | 1013.6 |
| 20260504032405 | 45 | 246 | 0.0 | 1.0 | 0.00 | 0.00 | 0.00 | 69 | 1013.5 |
| 20260504031906 | 45 | 245 | 0.0 | 2.0 | 0.00 | 0.00 | 0.00 | 68 | 1013.5 |
| 20260504031408 | 45 | 329 | 1.0 | 2.0 | 0.00 | 0.00 | 0.00 | 68 | 1013.5 |
| 20260504030908 | 45 | 346 | 0.0 | 2.0 | 0.00 | 0.00 | 0.00 | 69 | 1013.4 |
| 20260504025407 | 45 | 160 | 0.0 | 1.0 | 0.00 | 0.00 | 0.00 | 68 | 1013.4 |
| 20260504024905 | 45 | 61 | 0.0 | 1.0 | 0.00 | 0.00 | 0.00 | 67 | 1013.4 |
| 20260504024405 | 46 | 214 | 0.0 | 1.0 | 0.00 | 0.00 | 0.00 | 67 | 1013.5 |
| 20260504023906 | 46 | 185 | 0.0 | 1.0 | 0.00 | 0.00 | 0.00 | 67 | 1013.5 |
| 20260504023408 | 46 | 42 | 0.0 | 1.0 | 0.00 | 0.00 | 0.00 | 67 | 1013.4 |
| 20260504021906 | 46 | 173 | 0.0 | 1.0 | 0.00 | 0.00 | 0.00 | 66 | 1013.4 |
| 20260504020906 | 47 | 290 | 1.0 | 2.0 | 0.00 | 0.00 | 0.00 | 64 | 1013.4 |
| 20260504020407 | 47 | 107 | 0.0 | 1.0 | 0.00 | 0.00 | 0.00 | 64 | 1013.3 |
| 20260504015905 | 47 | 174 | 0.0 | 1.0 | 0.00 | 0.00 | 0.00 | 64 | 1013.3 |
| 20260504015406 | 47 | 222 | 0.0 | 1.0 | 0.00 | 0.00 | 0.00 | 64 | 1013.4 |
| 20260504014905 | 48 | 214 | 0.0 | 1.0 | 0.00 | 0.00 | 0.00 | 62 | 1013.3 |
| 20260504013906 | 49 | 160 | 0.0 | 1.0 | 0.00 | 0.00 | 0.00 | 61 | 1013.3 |
| 20260504013405 | 49 | 153 | 0.0 | 1.0 | 0.00 | 0.00 | 0.00 | 60 | 1013.2 |
| 20260504012906 | 50 | 231 | 0.0 | 0.0 | 0.00 | 0.00 | 0.00 | 58 | 1013.2 |
| 20260504012406 | 50 | 231 | 0.0 | 0.0 | 0.00 | 0.00 | 0.00 | 56 | 1013.1 |
| 20260504011906 | 51 | 231 | 0.0 | 0.0 | 0.00 | 0.00 | 0.00 | 53 | 1013.1 |
| 20260504011406 | 51 | 231 | 1.0 | 1.0 | 0.00 | 0.00 | 0.00 | 52 | 1013.0 |
| 20260504010905 | 52 | 190 | 0.0 | 0.0 | 0.00 | 0.00 | 0.00 | 52 | 1013.0 |
| 20260504005905 | 52 | 222 | 0.0 | 2.0 | 0.00 | 0.00 | 0.00 | 49 | 1012.8 |
| 20260504005408 | 52 | 226 | 1.0 | 2.0 | 0.00 | 0.00 | 0.00 | 50 | 1012.7 |
| 20260504004906 | 53 | 294 | 0.0 | 1.0 | 0.00 | 0.00 | 0.00 | 50 | 1012.7 |
| 20260504004405 | 53 | 223 | 0.0 | 1.0 | 0.00 | 0.00 | 0.00 | 48 | 1012.6 |
| 20260504003907 | 53 | 229 | 0.0 | 2.0 | 0.00 | 0.00 | 0.00 | 47 | 1012.6 |
| 20260504003406 | 54 | 206 | 0.0 | 2.0 | 0.00 | 0.00 | 0.00 | 46 | 1012.5 |
| 20260504002406 | 55 | 241 | 0.0 | 2.0 | 0.00 | 0.00 | 0.00 | 44 | 1012.4 |
| 20260504001905 | 55 | 179 | 0.0 | 1.0 | 0.00 | 0.00 | 0.00 | 45 | 1012.3 |
| 20260504001405 | 56 | 198 | 0.0 | 3.0 | 0.00 | 0.00 | 0.00 | 43 | 1012.3 |
| 20260503235906 | 57 | 188 | 1.0 | 3.0 | 0.00 | 0.00 | 0.00 | 40 | 1012.1 |
| 20260503235405 | 58 | 231 | 1.0 | 5.0 | 0.00 | 0.00 | 0.00 | 39 | 1012.1 |
| 20260503234906 | 58 | 254 | 3.0 | 6.0 | 0.00 | 0.00 | 0.00 | 38 | 1012.0 |
| 20260503234406 | 58 | 227 | 2.0 | 7.0 | 0.00 | 0.00 | 0.00 | 38 | 1012.0 |
| 20260503233907 | 58 | 281 | 2.0 | 5.0 | 0.00 | 0.00 | 0.00 | 39 | 1012.0 |
| 20260503233405 | 58 | 232 | 1.0 | 5.0 | 0.00 | 0.00 | 0.00 | 38 | 1012.0 |
| 20260503232906 | 58 | 198 | 2.0 | 5.0 | 0.00 | 0.00 | 0.00 | 37 | 1011.9 |
| 20260503232405 | 59 | 281 | 3.0 | 8.0 | 0.00 | 0.00 | 0.00 | 37 | 1011.9 |
| 20260503231906 | 59 | 225 | 3.0 | 8.0 | 0.00 | 0.00 | 0.00 | 36 | 1011.8 |
| 20260503231406 | 59 | 294 | 3.0 | 7.0 | 0.00 | 0.00 | 0.00 | 36 | 1011.9 |
| 20260503230905 | 59 | 252 | 5.0 | 10.0 | 0.00 | 0.00 | 0.00 | 36 | 1011.8 |
| 20260503230405 | 60 | 197 | 3.0 | 7.0 | 0.00 | 0.00 | 0.00 | 36 | 1011.6 |
| 20260503225907 | 60 | 309 | 2.0 | 8.0 | 0.00 | 0.00 | 0.00 | 36 | 1011.7 |
| 20260503224906 | 61 | 272 | 3.0 | 8.0 | 0.00 | 0.00 | 0.00 | 34 | 1011.6 |
| 20260503224406 | 61 | 281 | 2.0 | 7.0 | 0.00 | 0.00 | 0.00 | 34 | 1011.7 |
| 20260503223906 | 61 | 247 | 5.0 | 9.0 | 0.00 | 0.00 | 0.00 | 34 | 1011.7 |
| 20260503223405 | 61 | 298 | 3.0 | 10.0 | 0.00 | 0.00 | 0.00 | 34 | 1011.7 |
| 20260503222905 | 61 | 253 | 3.0 | 9.0 | 0.00 | 0.00 | 0.00 | 34 | 1011.6 |
| 20260503220905 | 61 | 212 | 3.0 | 8.0 | 0.00 | 0.00 | 0.00 | 34 | 1011.7 |
| 20260503215906 | 62 | 267 | 5.0 | 9.0 | 0.00 | 0.00 | 0.00 | 33 | 1011.6 |
| 20260503215406 | 62 | 248 | 3.0 | 8.0 | 0.00 | 0.00 | 0.00 | 34 | 1011.5 |
| 20260503214908 | 61 | 332 | 2.0 | 6.0 | 0.00 | 0.00 | 0.00 | 34 | 1011.5 |
| 20260503214405 | 61 | 217 | 3.0 | 9.0 | 0.00 | 0.00 | 0.00 | 34 | 1011.5 |
| 20260503213905 | 61 | 266 | 3.0 | 7.0 | 0.00 | 0.00 | 0.00 | 34 | 1011.5 |
| 20260503213405 | 60 | 341 | 2.0 | 7.0 | 0.00 | 0.00 | 0.00 | 34 | 1011.5 |
| 20260503212905 | 60 | 222 | 3.0 | 8.0 | 0.00 | 0.00 | 0.00 | 34 | 1011.5 |
| 20260503212406 | 60 | 288 | 4.0 | 9.0 | 0.00 | 0.00 | 0.00 | 35 | 1011.5 |
| 20260503211905 | 60 | 311 | 5.0 | 12.0 | 0.00 | 0.00 | 0.00 | 35 | 1011.3 |
| 20260503211405 | 60 | 315 | 4.0 | 12.0 | 0.00 | 0.00 | 0.00 | 34 | 1011.5 |
| 20260503210905 | 60 | 340 | 3.0 | 9.0 | 0.00 | 0.00 | 0.00 | 34 | 1011.5 |
| 20260503210405 | 59 | 238 | 6.0 | 10.0 | 0.00 | 0.00 | 0.00 | 36 | 1011.5 |
| 20260503205907 | 60 | 246 | 5.0 | 10.0 | 0.00 | 0.00 | 0.00 | 35 | 1011.6 |
| 20260503205405 | 59 | 298 | 3.0 | 7.0 | 0.00 | 0.00 | 0.00 | 36 | 1011.6 |
| 20260503204905 | 59 | 0 | 5.0 | 9.0 | 0.00 | 0.00 | 0.00 | 35 | 1011.7 |
| 20260503204405 | 59 | 275 | 5.0 | 10.0 | 0.00 | 0.00 | 0.00 | 36 | 1011.7 |
| 20260503203905 | 60 | 348 | 5.0 | 10.0 | 0.00 | 0.00 | 0.00 | 36 | 1011.8 |
| 20260503203405 | 59 | 11 | 3.0 | 8.0 | 0.00 | 0.00 | 0.00 | 36 | 1011.7 |
| 20260503202907 | 59 | 278 | 4.0 | 10.0 | 0.00 | 0.00 | 0.00 | 36 | 1011.9 |
| 20260503202405 | 59 | 212 | 4.0 | 8.0 | 0.00 | 0.00 | 0.00 | 36 | 1011.7 |
| 20260503201906 | 58 | 321 | 3.0 | 10.0 | 0.00 | 0.00 | 0.00 | 36 | 1011.8 |
| 20260503201405 | 58 | 319 | 4.0 | 8.0 | 0.00 | 0.00 | 0.00 | 36 | 1011.9 |
| 20260503200906 | 59 | 307 | 3.0 | 8.0 | 0.00 | 0.00 | 0.00 | 36 | 1011.9 |
| 20260503200407 | 59 | 307 | 3.0 | 9.0 | 0.00 | 0.00 | 0.00 | 36 | 1011.9 |
| 20260503195905 | 59 | 236 | 5.0 | 9.0 | 0.00 | 0.00 | 0.00 | 37 | 1011.8 |
| 20260503195405 | 59 | 258 | 4.0 | 9.0 | 0.00 | 0.00 | 0.00 | 37 | 1011.8 |
| 20260503194906 | 58 | 245 | 3.0 | 10.0 | 0.00 | 0.00 | 0.00 | 37 | 1011.9 |
| 20260503194405 | 58 | 310 | 5.0 | 10.0 | 0.00 | 0.00 | 0.00 | 36 | 1011.9 |
| 20260503193405 | 58 | 323 | 5.0 | 10.0 | 0.00 | 0.00 | 0.00 | 36 | 1012.1 |